FW8987 Weather Reports


time (UTC)temp
F
wind
direction
speed
knots
gust
knots
rain 1hr
in
rain 24hr
in
rain mn
in
humidity
%
barometer
mb
20240418170603 35 110 0.9 2.6 0.00 0.00 0.00 84 1016.1
20240418165604 35 76 1.7 4.3 0.00 0.00 0.00 84 1016.1
20240418164546 34 66 1.7 7.0 0.00 0.00 0.00 84 1016.3
20240418163545 34 119 0.9 4.3 0.00 0.00 0.00 84 1016.3
20240418162545 34 52 2.6 7.0 0.00 0.00 0.00 85 1016.3
20240418161545 34 69 1.7 6.1 0.00 0.00 0.00 86 1016.3
20240418160546 34 85 0.9 4.3 0.00 0.00 0.00 87 1016.4
20240418155546 34 56 1.7 6.1 0.00 0.00 0.00 86 1016.4
20240418154607 34 125 0.9 4.3 0.00 0.00 0.00 87 1016.4
20240418153547 34 114 1.7 5.2 0.00 0.00 0.00 85 1016.4
20240418152547 35 90 1.7 6.1 0.00 0.00 0.00 82 1016.4
20240418151550 35 136 1.7 7.0 0.00 0.00 0.00 81 1016.5
20240418150533 35 80 2.6 7.0 0.00 0.00 0.00 79 1016.4
20240418145548 35 65 2.6 7.8 0.00 0.00 0.00 79 1016.6
20240418144549 36 59 1.7 7.0 0.00 0.00 0.00 79 1016.4
20240418143549 35 86 2.6 6.1 0.00 0.00 0.00 78 1016.5
20240418142551 36 65 2.6 6.1 0.00 0.00 0.00 77 1016.6
20240418141610 36 50 2.6 6.1 0.00 0.00 0.00 77 1016.5
20240418140553 36 30 3.5 6.1 0.00 0.00 0.00 76 1016.6
20240418135551 37 93 1.7 6.1 0.00 0.00 0.00 74 1016.6
20240418134552 36 62 2.6 7.0 0.00 0.00 0.00 74 1016.5
20240418133613 36 63 1.7 5.2 0.00 0.00 0.00 74 1016.6
20240418132552 36 104 1.7 6.1 0.00 0.00 0.00 76 1016.6
20240418131555 36 59 2.6 6.1 0.00 0.00 0.00 76 1016.7
20240418130553 36 88 2.6 6.1 0.00 0.00 0.00 75 1016.8
20240418125554 36 74 2.6 7.8 0.00 0.00 0.00 74 1016.8
20240418124554 36 81 1.7 5.2 0.00 0.00 0.00 75 1016.8
20240418123538 36 77 1.7 4.3 0.00 0.00 0.00 73 1016.9
20240418122615 36 106 0.9 6.1 0.00 0.00 0.00 73 1016.8
20240418121555 36 132 1.7 7.0 0.00 0.00 0.00 72 1016.9
20240418120554 36 83 1.7 4.3 0.00 0.00 0.00 73 1017.0
20240418115555 36 64 2.6 7.0 0.00 0.00 0.00 73 1017.1
20240418114554 35 62 2.6 6.1 0.00 0.00 0.00 73 1017.0
20240418113554 36 83 1.7 5.2 0.00 0.00 0.00 72 1017.2
20240418112616 35 42 2.6 5.2 0.00 0.00 0.00 71 1017.1
20240418111556 35 125 1.7 4.3 0.00 0.00 0.00 74 1017.1
20240418110616 35 165 0.9 4.3 0.00 0.00 0.00 73 1017.2
20240418105556 35 145 0.9 4.3 0.00 0.00 0.00 73 1017.1
20240418104617 34 121 1.7 4.3 0.00 0.00 0.00 74 1017.2
20240418103557 34 96 1.7 5.2 0.00 0.00 0.00 74 1017.2
20240418102558 33 122 1.7 4.3 0.00 0.00 0.00 75 1017.2
20240418101558 33 129 1.7 4.3 0.00 0.00 0.00 75 1017.3
20240418100559 33 46 1.7 5.2 0.00 0.00 0.00 74 1017.2
20240418095619 33 102 1.7 2.6 0.00 0.00 0.00 73 1017.2
20240418094559 34 103 2.6 5.2 0.00 0.00 0.00 73 1017.3
20240418093516 34 127 1.7 5.2 0.00 0.00 0.00 70 1017.2
20240418092537 34 93 1.7 4.3 0.00 0.00 0.00 68 1017.2
20240418091517 34 32 1.7 5.2 0.00 0.00 0.00 66 1017.3
20240418090517 34 72 1.7 6.1 0.00 0.00 0.00 66 1017.2
20240418085517 34 70 2.6 5.2 0.00 0.00 0.00 63 1017.2
20240418084518 34 53 2.6 6.1 0.00 0.00 0.00 61 1017.1
20240418083539 34 73 2.6 7.0 0.00 0.00 0.00 60 1017.1
20240418082519 34 95 1.7 5.2 0.00 0.00 0.00 60 1017.3
20240418081520 33 53 1.7 5.2 0.00 0.00 0.00 61 1017.1
20240418080520 33 88 2.6 6.1 0.00 0.00 0.00 62 1017.2
20240418075540 33 28 2.6 6.1 0.00 0.00 0.00 64 1017.2
20240418074601 32 45 2.6 7.8 0.00 0.00 0.00 67 1017.3
20240418073521 32 291 0.9 2.6 0.00 0.00 0.00 71 1017.3
20240418072541 32 43 1.7 5.2 0.00 0.00 0.00 72 1017.2
20240418071605 32 87 1.7 7.0 0.00 0.00 0.00 73 1017.2
20240418070523 32 343 1.7 4.3 0.00 0.00 0.00 74 1017.1
20240418065542 32 85 0.9 7.0 0.00 0.00 0.00 73 1017.2
20240418064523 31 44 2.6 7.0 0.00 0.00 0.00 74 1017.1
20240418063524 31 36 1.7 5.2 0.00 0.00 0.00 79 1017.1
20240418062524 31 190 0.9 6.1 0.00 0.00 0.00 80 1017.0
20240418061524 31 85 0.9 6.1 0.00 0.00 0.00 81 1017.0
20240418060525 31 61 1.7 4.3 0.00 0.00 0.00 82 1016.9
20240418055525 30 200 0.9 2.6 0.00 0.00 0.00 84 1016.9
20240418054526 30 211 0.9 1.7 0.00 0.00 0.00 84 1016.8
20240418053547 30 223 0.9 2.6 0.00 0.00 0.00 85 1016.8
20240418052526 29 242 0.0 2.6 0.00 0.00 0.00 86 1016.9
20240418051527 29 232 0.0 1.7 0.00 0.00 0.00 86 1016.9
20240418050528 29 216 0.0 2.6 0.00 0.00 0.00 87 1016.9
20240418045528 29 203 0.9 2.6 0.00 0.00 0.00 87 1016.8
20240418044528 28 223 0.9 2.6 0.00 0.00 0.00 88 1016.7
20240418043528 28 238 0.9 2.6 0.00 0.00 0.00 88 1016.7
20240418042610 28 231 0.9 2.6 0.00 0.00 0.00 88 1016.5
20240418041529 28 231 0.9 2.6 0.00 0.00 0.00 89 1016.7
20240418040550 28 226 0.0 1.7 0.00 0.00 0.00 90 1016.6
20240418035531 28 226 0.0 1.7 0.00 0.00 0.00 91 1016.6
20240418034551 28 208 0.0 0.9 0.00 0.00 0.00 90 1016.5
20240418033551 27 220 0.9 1.7 0.00 0.00 0.00 90 1016.5
20240418032531 27 219 0.9 1.7 0.00 0.00 0.00 90 1016.3
20240418031532 27 220 0.9 1.7 0.00 0.00 0.00 89 1016.3
20240418030533 27 228 0.9 1.7 0.00 0.00 0.00 90 1016.2
20240418025533 27 214 0.0 0.9 0.00 0.00 0.00 89 1016.2
20240418024533 27 267 0.0 2.6 0.00 0.00 0.00 89 1016.2
20240418023534 28 239 0.0 2.6 0.00 0.00 0.00 89 1016.1
20240418022534 28 214 0.9 0.9 0.00 0.00 0.00 89 1016.2
20240418021554 27 208 0.0 0.9 0.00 0.00 0.00 90 1016.1
20240418020554 27 218 0.0 0.9 0.00 0.00 0.00 91 1016.1
20240418015535 28 200 0.0 0.9 0.00 0.00 0.00 91 1016.1
20240418014536 28 208 0.0 0.9 0.00 0.00 0.00 92 1016.0
20240418013536 28 208 0.0 0.9 0.00 0.00 0.00 92 1016.1
20240418012536 28 0.0 0.9 0.00 0.00 0.00 91 1016.0
20240418011537 28 201 0.0 0.9 0.00 0.00 0.00 91 1016.0
20240418010537 28 0.0 0.9 0.00 0.00 0.00 90 1015.9
20240418005538 29 190 0.0 0.9 0.00 0.00 0.00 89 1015.9
20240418004538 29 175 0.0 1.7 0.00 0.00 0.00 89 1015.8
20240418003539 30 166 0.0 0.9 0.00 0.00 0.00 90 1015.9
20240418002539 30 152 0.0 0.9 0.00 0.00 0.00 89 1015.8
20240418001539 31 210 0.9 1.7 0.00 0.00 0.00 88 1016.0
20240418000540 31 42 0.9 5.2 0.00 0.00 0.00 87 1015.8
20240417235540 31 129 0.9 2.6 0.00 0.00 0.00 88 1015.9
20240417234601 32 117 0.9 2.6 0.00 0.00 0.00 86 1015.9
20240417233541 32 110 1.7 4.3 0.00 0.00 0.00 85 1015.8
20240417232541 32 114 0.9 4.3 0.00 0.00 0.00 84 1015.7
20240417231542 32 167 0.0 0.9 0.00 0.00 0.00 84 1015.9
20240417230542 32 115 0.9 2.6 0.00 0.00 0.00 84 1015.7
20240417225542 32 132 0.9 2.6 0.00 0.00 0.00 84 1015.8
20240417224543 32 164 0.9 2.6 0.00 0.00 0.00 84 1015.8
20240417223544 32 104 0.9 2.6 0.00 0.00 0.00 83 1015.8
20240417222544 32 238 0.0 0.9 0.00 0.00 0.00 84 1015.6
20240417221605 32 187 0.0 2.6 0.00 0.00 0.00 84 1015.6
20240417220529 32 119 0.9 5.2 0.00 0.00 0.00 84 1015.8
20240417215546 31 45 1.7 5.2 0.00 0.00 0.00 84 1015.6
20240417214546 32 91 0.9 4.3 0.00 0.00 0.00 84 1015.6
20240417213547 31 58 1.7 5.2 0.00 0.00 0.00 83 1015.6
20240417212547 31 89 0.9 4.3 0.00 0.00 0.00 83 1015.4
20240417211549 32 139 0.9 2.6 0.00 0.00 0.00 83 1015.2
20240417210531 32 49 2.6 6.1 0.00 0.00 0.00 83 1015.1
20240417205532 32 58 2.6 7.8 0.00 0.00 0.00 82 1015.1
20240417204553 32 22 2.6 8.7 0.00 0.00 0.00 82 1015.1
20240417203517 32 172 0.0 2.6 0.00 0.00 0.00 83 1014.9
20240417202518 32 112 1.7 7.8 0.00 0.00 0.00 83 1015.0
20240417201546 32 53 2.6 9.6 0.00 0.00 0.00 83 1014.9
20240417200551 32 56 2.6 6.1 0.00 0.00 0.00 84 1014.8
20240417195530 32 8 1.7 4.3 0.00 0.00 0.00 84 1014.7
20240417194532 32 83 0.9 6.1 0.00 0.00 0.00 84 1014.6
20240417193636 32 61 3.5 7.8 0.00 0.00 0.00 85 1014.6
20240417192548 33 63 0.9 2.6 0.00 0.00 0.00 86 1014.5
20240417191548 33 112 0.9 4.3 0.00 0.00 0.00 85 1014.5
20240417190516 33 94 2.6 6.1 0.00 0.00 0.00 85 1014.3
20240417185537 33 110 1.7 4.3 0.00 0.00 0.00 84 1014.4
20240417184537 33 117 1.7 4.3 0.00 0.00 0.00 84 1014.3
20240417183518 33 112 1.7 5.2 0.00 0.00 0.00 84 1014.3
20240417182518 32 125 0.9 4.3 0.00 0.00 0.00 86 1014.2
20240417181518 33 100 0.9 2.6 0.00 0.00 0.00 85 1014.0
20240417180519 33 153 0.9 2.6 0.00 0.00 0.00 85 1013.9
20240417175535 33 141 0.9 5.2 0.00 0.00 0.00 84 1013.8
20240417174537 34 118 0.9 4.3 0.00 0.00 0.00 84 1013.5
20240417173557 34 135 0.9 4.3 0.00 0.00 0.00 83 1013.4
20240417172520 34 127 0.9 2.6 0.00 0.00 0.00 83 1013.3
20240417171521 34 125 0.9 4.3 0.00 0.00 0.00 83 1013.3